#timestamp,LO_Frequency,Hit 
1504119615.1,286047006.7,N
1504119616.0,286047006.7,N
1504119635.8,286047008.6,P
1504119655.7,286047002.4,N
1504119675.5,286047000.2,N
1504119695.3,286047002.7,N
1504119715.2,286046999.8,N
1504119735.9,286047002.2,N
1504119755.7,286047006.0,N
1504119775.6,286047005.3,N
1504119795.4,286047001.4,N
1504119815.2,286047005.8,N
1504119835.0,286047007.5,N
1504119836.0,286047007.5,N
1504119855.8,286047005.9,N
1504119875.6,286047001.4,N
1504119895.4,286047002.1,N
1504119915.3,286047005.1,N
1504119935.1,286047007.0,N
1504119955.8,286047009.1,P
1504119975.8,286047004.1,N
1504119995.6,286047000.4,N
1504120015.4,286047002.5,N
1504120035.3,286047002.8,N
1504120055.1,286047001.2,N
1504120056.0,286047001.2,N
1504120075.8,286046998.2,N
1504120095.7,286046998.2,N
1504120115.5,286047001.1,N
1504120135.3,286046999.0,N
1504120155.2,286047002.1,N
1504120175.9,286047001.5,N
1504120195.7,286047001.5,N
1504120215.5,286046998.1,N
1504120235.4,286046997.3,N
1504120255.2,286046998.0,N
1504120275.0,286046998.8,N
1504120275.9,286046998.8,N
1504120295.8,286047002.4,N
1504120315.6,286047001.6,N
1504120335.4,286047002.7,N
1504120355.3,286047002.1,N
1504120375.1,286047004.3,N
1504120376.0,286047004.3,N
1504120395.8,286047002.1,N
1504120415.7,286047000.5,N
1504120435.5,286046998.8,N
1504120455.3,286047000.5,N
1504120475.2,286047002.8,N
1504120495.9,286047001.2,N
1504120515.7,286047000.4,N
1504120535.5,286047002.4,N
1504120555.4,286046999.7,N
1504120575.2,286047000.5,N
1504120595.0,286046998.7,N
1504120595.9,286046998.7,N
1504120615.8,286046999.4,N
1504120635.6,286047000.5,N
1504120655.4,286047004.3,N
1504120675.3,286047004.3,N
1504120695.1,286047000.2,N
1504120696.0,286047000.2,N
1504120715.8,286047003.2,N
1504120735.7,286047002.9,N
1504120755.5,286047001.9,N
1504120775.3,286047003.1,N
1504120795.2,286047005.9,P
1504120815.9,286047005.0,N
1504120835.7,286047004.9,N
1504120855.6,286047005.5,P
1504120875.4,286047000.9,N
1504120895.2,286047000.6,N
1504120915.1,286047000.0,N
1504120916.0,286047000.0,N
1504120935.8,286046999.9,N
1504120955.6,286047000.5,N
1504120975.5,286047001.4,N
1504120995.3,286047005.1,N
1504121015.1,286047003.0,N
1504121035.9,286047002.2,N
1504121055.7,286046999.4,N
1504121075.5,286047001.4,N
1504121095.3,286047002.1,N
1504121115.2,286047003.6,N
1504121135.0,286047005.5,N
1504121135.9,286047005.5,N
1504121155.7,286047003.5,N
1504121175.6,286047002.1,N
1504121195.4,286047001.4,N
1504121215.2,286047001.7,N
1504121235.1,286047001.7,N
1504121236.0,286047001.7,N
1504121255.8,286047003.6,N
1504121275.6,286047005.9,P
1504121295.5,286047004.3,N
1504121315.3,286047004.1,N
1504121335.1,286047005.8,P
1504121355.9,286047002.7,P
1504121375.7,286047000.5,N
1504121395.5,286047000.6,N
1504121415.4,286046998.9,N
1504121435.2,286046999.2,N
1504121455.0,286046996.9,N
1504121455.9,286046996.9,N
1504121475.8,286046996.7,N
1504121495.6,286046997.3,N
1504121515.4,286046997.2,N
1504121535.3,286046995.3,N
1504121555.1,286046996.7,N
1504121556.0,286046996.7,N
1504121575.8,286046998.0,N
1504121595.7,286046995.6,N
1504121615.5,286046995.0,N
1504121635.3,286046997.5,N
1504121655.1,286046997.9,N
1504121675.9,286046999.5,N
1504121695.7,286046995.4,N
1504121715.5,286046995.4,N
1504121735.4,286046999.5,N
1504121755.2,286046998.4,N
1504121775.0,286047001.0,N
1504121775.9,286047001.0,N
1504121795.8,286047000.0,N
1504121815.6,286047000.8,N
1504121835.4,286047002.4,N
1504121855.3,286047001.4,N
1504121875.1,286047004.2,N
1504121876.0,286047004.2,N
1504121895.8,286047003.9,N
1504121915.7,286047005.6,N
1504121935.5,286047003.4,N
1504121955.3,286047001.9,N
1504121975.1,286047003.4,N
1504121995.9,286047005.8,N
1504122015.7,286047004.8,N
1504122035.5,286047005.2,N
1504122055.4,286047005.0,N
1504122075.2,286047005.7,N
1504122095.0,286047005.4,N
1504122095.9,286047005.4,N
1504122115.8,286047005.3,N
1504122135.6,286047005.1,N
1504122155.4,286047004.6,N
1504122175.3,286047004.6,N
1504122195.1,286047006.7,N
1504122196.0,286047006.7,N
1504122215.8,286047006.5,N
1504122235.7,286047004.8,N
1504122255.5,286047001.3,N
1504122275.3,286047003.8,N
1504122295.1,286047005.5,N
1504122315.9,286047005.3,N
1504122335.7,286047005.1,N
1504122355.6,286047007.6,P
1504122375.4,286047002.0,N
1504122395.2,286047002.2,N
1504122415.0,286047000.4,N
1504122416.0,286047000.4,N
1504122435.8,286047000.3,N
1504122455.6,286047001.2,N
1504122475.4,286047000.9,N
1504122495.3,286047002.4,N
1504122515.1,286047000.6,N
1504122535.8,286047000.0,N
1504122555.7,286046999.9,N
1504122575.5,286047001.0,N
1504122595.3,286047000.8,N
1504122615.2,286047001.1,N
1504122635.9,286047000.4,N
1504122655.7,286047002.4,N
1504122675.6,286047000.1,N
1504122695.4,286047004.1,N
1504122715.2,286047001.4,N
1504122735.0,286047001.8,N
1504122735.9,286047001.8,N
1504122755.8,286047003.0,N
1504122775.6,286047001.8,N
1504122795.4,286046999.8,N
1504122815.3,286046999.9,N
1504122835.1,286047001.7,N
1504122836.0,286047001.7,N
1504122855.8,286047006.0,P
1504122875.7,286047002.3,N
1504122895.5,286047001.3,N
1504122915.3,286047003.2,N
1504122935.2,286047004.2,N
1504122955.9,286047001.4,N
1504122975.7,286047003.8,N
1504122995.6,286047003.2,N
1504123015.4,286047003.9,N
1504123035.2,286047001.4,N
1504123055.1,286047001.4,N
1504123056.0,286047001.4,N
1504123075.8,286047005.0,P
1504123095.6,286047002.5,N
1504123115.5,286047006.0,P
1504123135.3,286047002.8,N
1504123155.2,286047002.6,N
1504123175.9,286047002.6,N
1504123195.7,286047002.6,N
